Location: Lane
(33.5226°N, 79.8788°W)
Time: 20:24:56
(UTC+00:00)

Explorer 11/Cluster Stage 4 - Pass Details

Date: 02 October 2022
Orbit: 466 x 1247 km, 28.8° (Epoch: 01 December)

Event Time Altitude Azimuth Distance (km) Brightness Sun altitude
Rises 19:18:20 0° 264° (W) 4,027 10.8 41.7°
Reaches altitude 10° 19:21:25 10° 261° (W) 2,976 10.4 41.3°
Maximum altitude 19:28:34 58° 184° (S) 1,120 8.5 40.2°
Drops below altitude 10° 19:34:22 10° 107° (ESE) 2,432 8.9 39.3°
Sets 19:36:40 0° 103° (ESE) 3,245 9.5 38.9°
